Location: Bethel Church
(38.0159°N, 88.7292°W)
Time: 02:41:12
(UTC+00:00)

PAYLOAD B - Pass Details

Date: 08 December 2021
Orbit: 848 x 872 km, 99.1° (Epoch: 21 January)

Event Time Altitude Azimuth Distance (km) Brightness Sun altitude
Rises 23:46:26 0° 163° (SSE) 3,446 7.4 -13.7°
Reaches altitude 10° 23:48:48 10° 163° (SSE) 2,511 6.7 -14.1°
Maximum altitude 23:54:24 85° 76° (ENE) 879 4.2 -15.2°
Drops below altitude 10° 00:00:02 10° 347° (NNW) 2,521 6.6 -16.2°
Sets 00:02:25 0° 347° (NNW) 3,459 7.4 -16.7°
